Retour au catalogue

FENGYUN 1C DEB

ActifSSO
NORAD 30468·DEBRIS·🇨🇳 China

Lancé May 10, 1999 depuis Taiyuan Satellite Launch Center

Loading…

Prochains Passages (prochaines 24 heures)

TLE

FraisSource: Space-Track

Époque: Sep 14, 2026, 04:38 UTC

1 30468U 99025AGF 26257.19332052  .00001630  00000-0  73543-3 0  9998
2 30468  98.9129 346.4750 0070349 328.7491  60.6135 14.22302476  7039

Suivez FENGYUN 1C DEB en temps réel avec AllMySat

Download on the App Store